Home   Weather   Honolulu   Past weeks

Flag for USA Past Weather in Honolulu, Hawaii, USA — Yesterday and Last 2 Weeks

77 °F

Passing clouds.

Feels Like: 79 °F
Forecast: 74 / 81 °F
Wind: 12 mph from Northeast

Location: Honolulu International Airport

Current Time: Oct 21, 2016 at 9:17:46 PM

Latest Report: Oct 21, 2016 at 7:53 PM

Visibility: 10 mi

Pressure: 30.03 "Hg

Humidity: 71%

Dew Point: 67 °F

Location of HonoluluLocation

Past Weather in Honolulu — Graph


Honolulu Temperature Yesterday

Maximum temperature yesterday: 85 °F (at 11:53 AM)
Minimum temperature yesterday: 76 °F (at 12:53 AM)
Average temperature yesterday: 79 °F

High & Low Weather Summary for the Past Weeks

High87 °F (Oct 15, 12:53 PM)85% (Oct 21, 11:53 AM)30.13 "Hg (Oct 21, 11:53 AM)
Low71 °F (Oct 10, 3:53 AM)45% (Oct 8, 11:53 AM)29.89 "Hg (Oct 9, 3:53 PM)
Average80 °F63%30.01 "Hg
* Reported Oct 6 7:53 PM — Oct 21 7:53 PM, Honolulu, Weather by CustomWeather, © 2016

Note: Actual official high and low records may vary slightly from our data, if they occured in-between our weather recording intervals... More about our weather records


Honolulu Weather History for the Previous 24 Hours

Scroll right to see more
Time TempWeatherWind HumidityBarometerVisibility
7:53 PM
Fri, Oct 21
77 °FPassing clouds.12 mph71%30.03 "Hg10 mi
6:53 PM77 °FPassing clouds.10 mph71%30.01 "Hg10 mi
5:53 PM79 °FScattered clouds.18 mph65%30.00 "Hg10 mi
4:53 PM81 °FScattered clouds.20 mph62%29.99 "Hg10 mi
3:53 PM81 °FScattered clouds.17 mph65%29.99 "Hg10 mi
2:53 PM82 °FBroken clouds.23 mph60%29.98 "Hg10 mi
1:53 PM83 °FPartly sunny.20 mph59%29.99 "Hg10 mi
12:53 PM82 °FLight rain. Partly sunny.20 mph63%30.02 "Hg10 mi
11:53 AM74 °FBroken clouds.14 mph85%30.03 "Hg10 mi
10:53 AM82 °FScattered clouds.16 mph72%30.04 "Hg10 mi
9:53 AM79 °FScattered clouds.12 mph79%30.06 "Hg10 mi
7:53 AM78 °FLight rain. Broken clouds.10 mph71%30.04 "Hg10 mi
6:53 AM76 °FLight rain. Scattered clouds.13 mph77%30.02 "Hg10 mi
5:53 AM75 °FLight rain. Partly cloudy.10 mph79%30.01 "Hg10 mi
4:53 AM77 °FPassing clouds.9 mph71%30.00 "Hg10 mi
3:53 AM77 °FPassing clouds.12 mph69%30.00 "Hg10 mi
2:53 AM76 °FPassing clouds.8 mph74%29.99 "Hg10 mi
1:53 AM77 °FPassing clouds.15 mph71%30.01 "Hg10 mi
12:53 AM77 °FPassing clouds.8 mph71%30.03 "Hg10 mi
11:53 PM
Thu, Oct 20
76 °FPassing clouds.12 mph77%30.05 "Hg10 mi
10:53 PM76 °FLight rain. Passing clouds.10 mph77%30.06 "Hg10 mi
9:53 PM76 °FLight rain. Passing clouds.13 mph77%30.06 "Hg10 mi
Weather by CustomWeather, © 2016

See weather overviewHow to use our weather pages